FW0633 Weather Reports


Display with metric or nautical units.
time (UTC)temp
F
wind
direction
speed
MPH
gust
MPH
rain 1hr
in
rain 24hr
in
rain mn
in
humidity
%
barometer
mb
20260906024505 75 224 0.0 1.0 0.00 0.00 0.00 53 1038.3
20260906023027 75 270 0.0 1.0 0.00 0.00 0.00 49 1038.4
20260906021527 76 211 0.0 1.0 0.00 0.00 0.00 49 1038.1
20260906020006 76 235 0.0 1.0 0.00 0.00 0.00 49 1038.2
20260906014505 77 259 0.0 3.0 0.00 0.00 0.00 48 1038.4
20260906013006 77 261 0.0 1.0 0.00 0.00 0.00 47 1038.3
20260906011505 78 270 1.0 4.0 0.00 0.00 0.00 47 1038.3
20260906010005 79 231 1.0 3.0 0.00 0.00 0.00 46 1038.4
20260906004506 80 227 1.0 6.0 0.00 0.00 0.00 47 1038.5
20260906003026 79 214 3.0 8.0 0.00 0.00 0.00 49 1038.6
20260906001506 81 212 3.0 8.0 0.00 0.00 0.00 47 1038.5
20260906000005 82 215 3.0 9.0 0.00 0.00 0.00 45 1038.5
20260905234505 81 223 2.0 5.0 0.00 0.00 0.00 45 1038.4
20260905233005 80 226 1.0 5.0 0.00 0.00 0.00 45 1038.5
20260905231505 80 190 2.0 5.0 0.00 0.00 0.00 49 1038.5
20260905230005 79 198 4.0 9.0 0.00 0.00 0.00 50 1038.6
20260905224505 79 200 3.0 7.0 0.00 0.00 0.00 51 1038.7
20260905223005 79 220 4.0 11.0 0.00 0.00 0.00 51 1038.8
20260905221505 81 196 5.0 15.0 0.00 0.00 0.00 47 1038.8
20260905220005 82 223 4.0 10.0 0.00 0.00 0.00 43 1038.7
20260905214505 83 184 4.0 10.0 0.00 0.00 0.00 42 1038.7
20260905213005 85 217 5.0 13.0 0.00 0.00 0.00 40 1038.8
20260905211505 86 238 4.0 10.0 0.00 0.00 0.00 38 1038.9
20260905210005 85 203 2.0 6.0 0.00 0.00 0.00 39 1038.9
20260905204505 86 210 4.0 10.0 0.00 0.00 0.00 37 1039.0
20260905203006 88 210 3.0 8.0 0.00 0.00 0.00 35 1039.0
20260905201506 88 224 3.0 11.0 0.00 0.00 0.00 35 1039.0
20260905200005 88 229 4.0 11.0 0.00 0.00 0.00 33 1039.3
20260905194505 87 200 4.0 18.0 0.00 0.00 0.00 33 1039.4
20260905193005 85 211 3.0 8.0 0.00 0.00 0.00 33 1039.7
20260905191505 84 220 2.0 7.0 0.00 0.00 0.00 33 1039.9
20260905190005 84 211 3.0 9.0 0.00 0.00 0.00 34 1040.1
20260905184505 84 252 2.0 5.0 0.00 0.00 0.00 33 1040.2
20260905183005 85 227 3.0 8.0 0.00 0.00 0.00 33 1040.4
20260905181504 84 228 2.0 9.0 0.00 0.00 0.00 32 1040.2
20260905180005 85 145 3.0 8.0 0.00 0.00 0.00 31 1040.2
20260905174504 84 147 5.0 12.0 0.00 0.00 0.00 32 1040.2
20260905173025 84 153 3.0 9.0 0.00 0.00 0.00 32 1040.2
20260905171506 84 211 2.0 8.0 0.00 0.00 0.00 30 1040.1
20260905170005 83 190 3.0 8.0 0.00 0.00 0.00 32 1040.2
20260905164505 83 141 3.0 10.0 0.00 0.00 0.00 35 1040.1
20260905163025 81 155 3.0 6.0 0.00 0.00 0.00 35 1040.1
20260905161505 81 143 2.0 10.0 0.00 0.00 0.00 37 1039.8
20260905160006 81 165 2.0 7.0 0.00 0.00 0.00 37 1039.9
20260905154504 80 190 2.0 5.0 0.00 0.00 0.00 40 1039.8
20260905153005 77 0 0.0 0.0 0.00 0.00 0.00 44 1039.9
20260905151504 76 0 0.0 0.0 0.00 0.00 0.00 47 1039.8
20260905150025 74 0 0.0 0.0 0.00 0.00 0.00 53 1039.7
20260905144504 69 0 0.0 0.0 0.00 0.00 0.00 57 1039.8
20260905143005 66 0 0.0 0.0 0.00 0.00 0.00 60 1039.8
20260905141504 63 255 0.0 1.0 0.00 0.00 0.00 62 1039.7
20260905140005 61 262 0.0 1.0 0.00 0.00 0.00 65 1039.6
20260905134525 58 259 0.0 1.0 0.00 0.00 0.00 67 1039.5
20260905133004 57 258 0.0 1.0 0.00 0.00 0.00 68 1039.2
20260905131504 57 278 0.0 2.0 0.00 0.00 0.00 68 1039.0
20260905130025 57 274 0.0 2.0 0.00 0.00 0.00 68 1038.8
20260905124504 56 285 0.0 2.0 0.00 0.00 0.00 68 1038.6
20260905123025 56 288 0.0 1.0 0.00 0.00 0.00 67 1038.6
20260905121505 57 264 0.0 1.0 0.00 0.00 0.00 67 1038.5
20260905120004 57 248 0.0 1.0 0.00 0.00 0.00 66 1038.5
20260905114525 57 261 0.0 1.0 0.00 0.00 0.00 66 1038.4
20260905113025 57 278 0.0 1.0 0.00 0.00 0.00 65 1038.6
20260905111505 57 280 0.0 1.0 0.00 0.00 0.00 64 1038.6
20260905110004 58 260 0.0 1.0 0.00 0.00 0.00 63 1038.5
20260905104504 58 253 0.0 1.0 0.00 0.00 0.00 62 1038.4
20260905103005 58 254 0.0 1.0 0.00 0.00 0.00 61 1038.3
20260905101505 58 247 0.0 1.0 0.00 0.00 0.00 60 1038.4
20260905100004 59 260 0.0 1.0 0.00 0.00 0.00 59 1038.4
20260905094524 59 259 0.0 2.0 0.00 0.00 0.00 58 1038.4
20260905093004 60 250 0.0 2.0 0.00 0.00 0.00 57 1038.4
20260905091504 60 273 0.0 2.0 0.00 0.00 0.00 57 1038.4
20260905090025 60 244 0.0 1.0 0.00 0.00 0.00 57 1038.5
20260905084503 61 238 0.0 1.0 0.00 0.00 0.00 56 1038.6
20260905083004 61 238 0.0 1.0 0.00 0.00 0.00 55 1038.7
20260905081504 62 277 0.0 1.0 0.00 0.00 0.00 55 1038.8
20260905080004 63 276 0.0 2.0 0.00 0.00 0.00 54 1039.0
20260905074524 64 271 0.0 1.0 0.00 0.00 0.00 53 1038.8
20260905073024 64 246 0.0 1.0 0.00 0.00 0.00 53 1038.8
20260905071504 65 280 0.0 2.0 0.00 0.00 0.00 55 1038.7
20260905070004 65 274 0.0 1.0 0.00 0.00 0.00 56 1038.7
20260905064524 65 0 0.0 0.0 0.00 0.00 0.00 58 1038.7
20260905063024 66 283 0.0 1.0 0.00 0.00 0.00 59 1038.6
20260905061524 67 283 0.0 1.0 0.00 0.00 0.00 60 1038.6
20260905060004 66 283 0.0 1.0 0.00 0.00 0.00 62 1038.5
20260905054503 66 0 0.0 0.0 0.00 0.00 0.00 64 1038.4
20260905053003 66 283 0.0 1.0 0.00 0.00 0.00 65 1038.4
20260905051504 67 0 0.0 0.0 0.00 0.00 0.00 63 1038.4
20260905050003 68 283 0.0 1.0 0.00 0.00 0.00 60 1038.2
20260905044503 68 0 0.0 0.0 0.00 0.00 0.00 59 1038.1
20260905043003 69 293 0.0 1.0 0.00 0.00 0.00 58 1038.1
20260905041527 68 123 0.0 1.0 0.00 0.00 0.00 58 1037.9
20260905040006 70 0 0.0 0.0 0.00 0.00 0.00 56 1037.8
20260905034506 72 135 0.0 2.0 0.00 0.00 0.00 52 1037.8
20260905033006 72 116 0.0 2.0 0.00 0.00 0.00 51 1037.8
20260905031505 72 148 0.0 1.0 0.00 0.00 0.00 51 1037.6
20260905030006 73 149 0.0 2.0 0.00 0.00 0.00 50 1037.3